Find NNS 30320-48

NORAD ID: 19071 Int'l Des: 1988-033 Owner: NAVAIR Country: US operational
LEORETROGRADE

現在のビュー

3D地球を読み込み中...

About NNS 30320-48

NNS 30320-48 (NORAD 19071) is a satellite launched Apr 26, 1988 by NAVAIR of US. It operates in LEO, RETROGRADE orbit with a mass of 64.00 kg.

次回通過

Passes for default location (London). Set your location on the main map for personalized predictions.

高度履歴

Loading altitude history...

軌道要素

1 19071U 88033B 26195.56136678 .00000032 00000-0 53122-4 0 9997
2 19071 90.3271 23.2948 0185974 292.6716 126.6486 13.27983202851034
Epoch: Jul 14, 2026 • Age: 9 hours

現在のステータス

高度 1306.4 km
遠地点 / 近地点 N/A
速度 7.14 km/s
衛星直下点 75.47°N, 69.35°W
打ち上げ日 Apr 26, 1988
運用期間 38.2 years
タイプ other

技術仕様

分類 Payload
質量 64.00 kg
乾燥質量 64.00 kg
総質量 64.00 kg
長さ 0.30 m
直径 0.50 m
スパン 30.00 m
形状 Oct Cyl + 4 Pan + Ant
製造者 GEEW
バスタイプ Transit 5
フェーズステータス In Orbit
所有者/国 NAVAIR/US

Most Searched